Year,Month,Day,Hour,Minute,Value (Times are PST for temperature in C)
2006,05,02,00,00,6.00
2006,05,02,00,01,5.90
2006,05,02,00,02,5.90
2006,05,02,00,03,5.80
2006,05,02,00,04,5.80
2006,05,02,00,05,5.70
2006,05,02,00,06,5.70
2006,05,02,00,07,5.70
2006,05,02,00,08,5.70
2006,05,02,00,09,5.70
2006,05,02,00,10,5.70
2006,05,02,00,11,5.60
2006,05,02,00,12,5.60
2006,05,02,00,13,5.60
2006,05,02,00,14,5.60
2006,05,02,00,15,5.60
2006,05,02,00,16,5.60
2006,05,02,00,17,5.60
2006,05,02,00,18,5.50
2006,05,02,00,19,5.50
2006,05,02,00,20,5.50
2006,05,02,00,21,5.50
2006,05,02,00,22,5.50
2006,05,02,00,23,5.50
2006,05,02,00,24,5.40
2006,05,02,00,25,5.30
2006,05,02,00,26,5.20
2006,05,02,00,27,5.10
2006,05,02,00,28,5.10
2006,05,02,00,29,5.00
2006,05,02,00,30,4.90
2006,05,02,00,31,4.90
2006,05,02,00,32,4.90
2006,05,02,00,33,4.80
2006,05,02,00,34,4.70
2006,05,02,00,35,4.70
2006,05,02,00,36,4.60
2006,05,02,00,37,4.60
2006,05,02,00,38,4.50
2006,05,02,00,39,4.50
2006,05,02,00,40,4.50
2006,05,02,00,41,4.50
2006,05,02,00,42,4.40
2006,05,02,00,43,4.40
2006,05,02,00,44,4.40
2006,05,02,00,45,4.40
2006,05,02,00,46,4.30
2006,05,02,00,47,4.30
2006,05,02,00,48,4.20
2006,05,02,00,49,4.20
2006,05,02,00,50,4.20
2006,05,02,00,51,4.20
2006,05,02,00,52,4.20
2006,05,02,00,53,4.30
2006,05,02,00,54,4.30
2006,05,02,00,55,4.30
2006,05,02,00,56,4.40
2006,05,02,00,57,4.40
2006,05,02,00,58,4.40
2006,05,02,00,59,4.50
2006,05,02,01,00,4.50
2006,05,02,01,01,4.60
2006,05,02,01,02,4.50
2006,05,02,01,03,4.50
2006,05,02,01,04,4.30
2006,05,02,01,05,4.20
2006,05,02,01,06,4.20
2006,05,02,01,07,4.10
2006,05,02,01,08,4.00
2006,05,02,01,09,4.00
2006,05,02,01,10,3.90
2006,05,02,01,11,3.90
2006,05,02,01,12,3.80
2006,05,02,01,13,3.80
2006,05,02,01,14,3.80
2006,05,02,01,15,3.80
2006,05,02,01,16,3.80
2006,05,02,01,17,3.80
2006,05,02,01,18,3.80
2006,05,02,01,19,3.80
2006,05,02,01,20,3.70
2006,05,02,01,21,3.60
2006,05,02,01,22,3.60
2006,05,02,01,23,3.50
2006,05,02,01,24,3.50
2006,05,02,01,25,3.40
2006,05,02,01,26,3.40
2006,05,02,01,27,3.30
2006,05,02,01,28,3.30
2006,05,02,01,29,3.30
2006,05,02,01,30,3.30
2006,05,02,01,31,3.30
2006,05,02,01,32,3.30
2006,05,02,01,33,3.30
2006,05,02,01,34,3.30
2006,05,02,01,35,3.30
2006,05,02,01,36,3.30
2006,05,02,01,37,3.30
2006,05,02,01,38,3.30
2006,05,02,01,39,3.30
2006,05,02,01,40,3.30
2006,05,02,01,41,3.30
2006,05,02,01,42,3.40
2006,05,02,01,43,3.40
2006,05,02,01,44,3.40
2006,05,02,01,45,3.40
2006,05,02,01,46,3.40
2006,05,02,01,47,3.30
2006,05,02,01,48,3.30
2006,05,02,01,49,3.30
2006,05,02,01,50,3.20
2006,05,02,01,51,3.20
2006,05,02,01,52,3.10
2006,05,02,01,53,3.10
2006,05,02,01,54,3.10
2006,05,02,01,55,3.10
2006,05,02,01,56,3.10
2006,05,02,01,57,3.10
2006,05,02,01,58,3.10
2006,05,02,01,59,3.10
2006,05,02,02,00,3.10
2006,05,02,02,01,3.10
2006,05,02,02,02,3.00
2006,05,02,02,03,2.90
2006,05,02,02,04,2.90
2006,05,02,02,05,2.90
2006,05,02,02,06,2.90
2006,05,02,02,07,2.90
2006,05,02,02,08,2.80
2006,05,02,02,09,2.80
2006,05,02,02,10,2.80
2006,05,02,02,11,2.70
2006,05,02,02,12,2.70
2006,05,02,02,13,2.70
2006,05,02,02,14,2.70
2006,05,02,02,15,2.70
2006,05,02,02,16,2.70
2006,05,02,02,17,2.60
2006,05,02,02,18,2.60
2006,05,02,02,19,2.60
2006,05,02,02,20,2.60
2006,05,02,02,21,2.60
2006,05,02,02,22,2.60
2006,05,02,02,23,2.60
2006,05,02,02,24,2.50
2006,05,02,02,25,2.50
2006,05,02,02,26,2.50
2006,05,02,02,27,2.50
2006,05,02,02,28,2.40
2006,05,02,02,29,2.40
2006,05,02,02,30,2.40
2006,05,02,02,31,2.40
2006,05,02,02,32,2.50
2006,05,02,02,33,2.50
2006,05,02,02,34,2.50
2006,05,02,02,35,2.50
2006,05,02,02,36,2.50
2006,05,02,02,37,2.50
2006,05,02,02,38,2.50
2006,05,02,02,39,2.40
2006,05,02,02,40,2.40
2006,05,02,02,41,2.40
2006,05,02,02,42,2.40
2006,05,02,02,43,2.30
2006,05,02,02,44,2.30
2006,05,02,02,45,2.20
2006,05,02,02,46,2.20
2006,05,02,02,47,2.20
2006,05,02,02,48,2.10
2006,05,02,02,49,2.10
2006,05,02,02,50,2.10
2006,05,02,02,51,2.10
2006,05,02,02,52,2.00
2006,05,02,02,53,2.00
2006,05,02,02,54,2.00
2006,05,02,02,55,2.00
2006,05,02,02,56,2.00
2006,05,02,02,57,2.00
2006,05,02,02,58,2.00
2006,05,02,02,59,2.10
2006,05,02,03,00,2.10
2006,05,02,03,01,2.20
2006,05,02,03,02,2.20
2006,05,02,03,03,2.10
2006,05,02,03,04,2.10
2006,05,02,03,05,2.00
2006,05,02,03,06,2.00
2006,05,02,03,07,1.90
2006,05,02,03,08,1.80
2006,05,02,03,09,1.80
2006,05,02,03,10,1.80
2006,05,02,03,11,1.70
2006,05,02,03,12,1.70
2006,05,02,03,13,1.70
2006,05,02,03,14,1.70
2006,05,02,03,15,1.70
2006,05,02,03,16,1.70
2006,05,02,03,17,1.70
2006,05,02,03,18,1.70
2006,05,02,03,19,1.70
2006,05,02,03,20,1.70
2006,05,02,03,21,1.70
2006,05,02,03,22,1.70
2006,05,02,03,23,1.60
2006,05,02,03,24,1.60
2006,05,02,03,25,1.60
2006,05,02,03,26,1.60
2006,05,02,03,27,1.50
2006,05,02,03,28,1.40
2006,05,02,03,29,1.40
2006,05,02,03,30,1.30
2006,05,02,03,31,1.20
2006,05,02,03,32,1.20
2006,05,02,03,33,1.10
2006,05,02,03,34,1.10
2006,05,02,03,35,1.00
2006,05,02,03,36,1.00
2006,05,02,03,37,1.00
2006,05,02,03,38,1.00
2006,05,02,03,39,1.00
2006,05,02,03,40,1.10
2006,05,02,03,41,1.10
2006,05,02,03,42,1.20
2006,05,02,03,43,1.20
2006,05,02,03,44,1.20
2006,05,02,03,45,1.20
2006,05,02,03,46,1.30
2006,05,02,03,47,1.30
2006,05,02,03,48,1.30
2006,05,02,03,49,1.30
2006,05,02,03,50,1.30
2006,05,02,03,51,1.30
2006,05,02,03,52,1.30
2006,05,02,03,53,1.30
2006,05,02,03,54,1.30
2006,05,02,03,55,1.30
2006,05,02,03,56,1.20
2006,05,02,03,57,1.20
2006,05,02,03,58,1.20
2006,05,02,03,59,1.20
2006,05,02,04,00,1.20
2006,05,02,04,01,1.10
2006,05,02,04,02,1.10
2006,05,02,04,03,1.10
2006,05,02,04,04,1.00
2006,05,02,04,05,1.00
2006,05,02,04,06,0.90
2006,05,02,04,07,0.90
2006,05,02,04,08,0.90
2006,05,02,04,09,0.90
2006,05,02,04,10,0.90
2006,05,02,04,11,0.90
2006,05,02,04,12,0.90
2006,05,02,04,13,0.90
2006,05,02,04,14,0.90
2006,05,02,04,15,0.90
2006,05,02,04,16,0.90
2006,05,02,04,17,1.00
2006,05,02,04,18,1.00
2006,05,02,04,19,1.10
2006,05,02,04,20,1.10
2006,05,02,04,21,1.10
2006,05,02,04,22,1.10
2006,05,02,04,23,1.10
2006,05,02,04,24,1.10
2006,05,02,04,25,1.10
2006,05,02,04,26,1.10
2006,05,02,04,27,1.10
2006,05,02,04,28,1.00
2006,05,02,04,29,0.90
2006,05,02,04,30,0.80
2006,05,02,04,31,0.80
2006,05,02,04,32,0.80
2006,05,02,04,33,0.80
2006,05,02,04,34,0.80
2006,05,02,04,35,0.80
2006,05,02,04,36,0.80
2006,05,02,04,37,0.80
2006,05,02,04,38,0.70
2006,05,02,04,39,0.60
2006,05,02,04,40,0.60
2006,05,02,04,41,0.50
2006,05,02,04,42,0.40
2006,05,02,04,43,0.40
2006,05,02,04,44,0.40
2006,05,02,04,45,0.40
2006,05,02,04,46,0.40
2006,05,02,04,47,0.40
2006,05,02,04,48,0.40
2006,05,02,04,49,0.40
2006,05,02,04,50,0.40
2006,05,02,04,51,0.50
2006,05,02,04,52,0.50
2006,05,02,04,53,0.50
2006,05,02,04,54,0.50
2006,05,02,04,55,0.50
2006,05,02,04,56,0.40
2006,05,02,04,57,0.40
2006,05,02,04,58,0.40
2006,05,02,04,59,0.40
2006,05,02,05,00,0.40
2006,05,02,05,01,0.40
2006,05,02,05,02,0.40
2006,05,02,05,03,0.40
2006,05,02,05,04,0.40
2006,05,02,05,05,0.40
2006,05,02,05,06,0.40
2006,05,02,05,07,0.40
2006,05,02,05,08,0.30
2006,05,02,05,09,0.30
2006,05,02,05,10,0.30
2006,05,02,05,11,0.30
2006,05,02,05,12,0.30
2006,05,02,05,13,0.30
2006,05,02,05,14,0.30
2006,05,02,05,15,0.30
2006,05,02,05,16,0.30
2006,05,02,05,17,0.40
2006,05,02,05,18,0.40
2006,05,02,05,19,0.40
2006,05,02,05,20,0.40
2006,05,02,05,21,0.30
2006,05,02,05,22,0.30
2006,05,02,05,23,0.30
2006,05,02,05,24,0.30
2006,05,02,05,25,0.20
2006,05,02,05,26,0.20
2006,05,02,05,27,0.20
2006,05,02,05,28,0.10
2006,05,02,05,29,0.10
2006,05,02,05,30,0.10
2006,05,02,05,31,0.10
2006,05,02,05,32,0.10
2006,05,02,05,33,0.10
2006,05,02,05,34,0.10
2006,05,02,05,35,0.10
2006,05,02,05,36,0.20
2006,05,02,05,37,0.20
2006,05,02,05,38,0.20
2006,05,02,05,39,0.30
2006,05,02,05,40,0.30
2006,05,02,05,41,0.30
2006,05,02,05,42,0.30
2006,05,02,05,43,0.20
2006,05,02,05,44,0.20
2006,05,02,05,45,0.20
2006,05,02,05,46,0.10
2006,05,02,05,47,0.10
2006,05,02,05,48,0.10
2006,05,02,05,49,0.00
2006,05,02,05,50,-0.10
2006,05,02,05,51,-0.10
2006,05,02,05,52,-0.10
2006,05,02,05,53,-0.20
2006,05,02,05,54,-0.20
2006,05,02,05,55,-0.20
2006,05,02,05,56,-0.20
2006,05,02,05,57,-0.20
2006,05,02,05,58,-0.10
2006,05,02,05,59,-0.10
2006,05,02,06,00,-0.10
2006,05,02,06,01,-0.10
2006,05,02,06,02,-0.10
2006,05,02,06,03,-0.10
2006,05,02,06,04,-0.10
2006,05,02,06,05,-0.10
2006,05,02,06,06,-0.10
2006,05,02,06,07,-0.10
2006,05,02,06,08,-0.10
2006,05,02,06,09,0.00
2006,05,02,06,10,0.10
2006,05,02,06,11,0.10
2006,05,02,06,12,0.10
2006,05,02,06,13,0.10
2006,05,02,06,14,0.10
2006,05,02,06,15,0.10
2006,05,02,06,16,0.00
2006,05,02,06,17,-0.10
2006,05,02,06,18,-0.10
2006,05,02,06,19,-0.10
2006,05,02,06,20,-0.10
2006,05,02,06,21,-0.20
2006,05,02,06,22,-0.20
2006,05,02,06,23,-0.20
2006,05,02,06,24,-0.20
2006,05,02,06,25,-0.20
2006,05,02,06,26,-0.20
2006,05,02,06,27,-0.20
2006,05,02,06,28,-0.20
2006,05,02,06,29,-0.10
2006,05,02,06,30,-0.10
2006,05,02,06,31,-0.10
2006,05,02,06,32,-0.10
2006,05,02,06,33,-0.10
2006,05,02,06,34,0.00
2006,05,02,06,35,0.10
2006,05,02,06,36,0.10
2006,05,02,06,37,0.10
2006,05,02,06,38,0.20
2006,05,02,06,39,0.20
2006,05,02,06,40,0.20
2006,05,02,06,41,0.20
2006,05,02,06,42,0.30
2006,05,02,06,43,0.30
2006,05,02,06,44,0.30
2006,05,02,06,45,0.30
2006,05,02,06,46,0.30
2006,05,02,06,47,0.30
2006,05,02,06,48,0.30
2006,05,02,06,49,0.30
2006,05,02,06,50,0.30
2006,05,02,06,51,0.20
2006,05,02,06,52,0.20
2006,05,02,06,53,0.30
2006,05,02,06,54,0.30
2006,05,02,06,55,0.30
2006,05,02,06,56,0.30
2006,05,02,06,57,0.40
2006,05,02,06,58,0.40
2006,05,02,06,59,0.50
2006,05,02,07,00,0.50
2006,05,02,07,01,0.60
2006,05,02,07,02,0.70
2006,05,02,07,03,0.80
2006,05,02,07,04,0.90
2006,05,02,07,05,0.90
2006,05,02,07,06,1.10
2006,05,02,07,07,1.20
2006,05,02,07,08,1.30
2006,05,02,07,09,1.30
2006,05,02,07,10,1.50
2006,05,02,07,11,1.50
2006,05,02,07,12,1.60
2006,05,02,07,13,1.90
2006,05,02,07,14,2.00
2006,05,02,07,15,2.10
2006,05,02,07,16,2.20
2006,05,02,07,17,2.30
2006,05,02,07,18,2.30
2006,05,02,07,19,2.40
2006,05,02,07,20,2.50
2006,05,02,07,21,2.60
2006,05,02,07,22,2.80
2006,05,02,07,23,3.00
2006,05,02,07,24,3.20
2006,05,02,07,25,3.30
2006,05,02,07,26,3.60
2006,05,02,07,27,3.70
2006,05,02,07,28,3.90
2006,05,02,07,29,4.00
2006,05,02,07,30,4.20
2006,05,02,07,31,4.40
2006,05,02,07,32,4.50
2006,05,02,07,33,4.60
2006,05,02,07,34,4.70
2006,05,02,07,35,4.90
2006,05,02,07,36,5.10
2006,05,02,07,37,5.40
2006,05,02,07,38,5.60
2006,05,02,07,39,5.90
2006,05,02,07,40,6.10
2006,05,02,07,41,6.30
2006,05,02,07,42,6.40
2006,05,02,07,43,6.60
2006,05,02,07,44,6.70
2006,05,02,07,45,6.80
2006,05,02,07,46,6.80
2006,05,02,07,47,6.90
2006,05,02,07,48,7.00
2006,05,02,07,49,7.00
2006,05,02,07,50,7.10
2006,05,02,07,51,7.20
2006,05,02,07,52,7.30
2006,05,02,07,53,7.30
2006,05,02,07,54,7.30
2006,05,02,07,55,7.30
2006,05,02,07,56,7.40
2006,05,02,07,57,7.40
2006,05,02,07,58,7.40
2006,05,02,07,59,7.40
2006,05,02,08,00,7.40
2006,05,02,08,01,7.50
2006,05,02,08,02,7.50
2006,05,02,08,03,7.50
2006,05,02,08,04,7.50
2006,05,02,08,05,7.50
2006,05,02,08,06,7.50
2006,05,02,08,07,7.50
2006,05,02,08,08,7.60
2006,05,02,08,09,7.60
2006,05,02,08,10,7.70
2006,05,02,08,11,7.70
2006,05,02,08,12,7.80
2006,05,02,08,13,7.80
2006,05,02,08,14,7.80
2006,05,02,08,15,7.80
2006,05,02,08,16,7.80
2006,05,02,08,17,7.80
2006,05,02,08,18,7.80
2006,05,02,08,19,7.90
2006,05,02,08,20,7.90
2006,05,02,08,21,7.90
2006,05,02,08,22,7.90
2006,05,02,08,23,7.90
2006,05,02,08,24,7.90
2006,05,02,08,25,8.00
2006,05,02,08,26,8.00
2006,05,02,08,27,8.00
2006,05,02,08,28,8.00
2006,05,02,08,29,8.00
2006,05,02,08,30,8.10
2006,05,02,08,31,8.10
2006,05,02,08,32,8.10
2006,05,02,08,33,8.10
2006,05,02,08,34,8.20
2006,05,02,08,35,8.20
2006,05,02,08,36,8.20
2006,05,02,08,37,8.20
2006,05,02,08,38,8.30
2006,05,02,08,39,8.40
2006,05,02,08,40,8.40
2006,05,02,08,41,8.50
2006,05,02,08,42,8.70
2006,05,02,08,43,8.70
2006,05,02,08,44,8.70
2006,05,02,08,45,8.70
2006,05,02,08,46,8.70
2006,05,02,08,47,8.70
2006,05,02,08,48,8.70
2006,05,02,08,49,8.70
2006,05,02,08,50,8.70
2006,05,02,08,51,8.70
2006,05,02,08,52,8.80
2006,05,02,08,53,8.90
2006,05,02,08,54,8.90
2006,05,02,08,55,9.00
2006,05,02,08,56,9.00
2006,05,02,08,57,9.00
2006,05,02,08,58,9.10
2006,05,02,08,59,9.10
2006,05,02,09,00,9.10
2006,05,02,09,01,9.10
2006,05,02,09,02,9.20
2006,05,02,09,03,9.20
2006,05,02,09,04,9.20
2006,05,02,09,05,9.20
2006,05,02,09,06,9.10
2006,05,02,09,07,9.00
2006,05,02,09,08,9.00
2006,05,02,09,09,9.00
2006,05,02,09,10,9.00
2006,05,02,09,11,9.00
2006,05,02,09,12,9.10
2006,05,02,09,13,9.20
2006,05,02,09,14,9.20
2006,05,02,09,15,9.30
2006,05,02,09,16,9.30
2006,05,02,09,17,9.30
2006,05,02,09,18,9.40
2006,05,02,09,19,9.40
2006,05,02,09,20,9.50
2006,05,02,09,21,9.50
2006,05,02,09,22,9.50
2006,05,02,09,23,9.60
2006,05,02,09,24,9.60
2006,05,02,09,25,9.60
2006,05,02,09,26,9.60
2006,05,02,09,27,9.70
2006,05,02,09,28,9.70
2006,05,02,09,29,9.70
2006,05,02,09,30,9.70
2006,05,02,09,31,9.70
2006,05,02,09,32,9.60
2006,05,02,09,33,9.60
2006,05,02,09,34,9.60
2006,05,02,09,35,9.60
2006,05,02,09,36,9.50
2006,05,02,09,37,9.60
2006,05,02,09,38,9.60
2006,05,02,09,39,9.60
2006,05,02,09,40,9.70
2006,05,02,09,41,9.70
2006,05,02,09,42,9.70
2006,05,02,09,43,9.70
2006,05,02,09,44,9.60
2006,05,02,09,45,9.50
2006,05,02,09,46,9.50
2006,05,02,09,47,9.60
2006,05,02,09,48,9.70
2006,05,02,09,49,9.80
2006,05,02,09,50,9.80
2006,05,02,09,51,9.90
2006,05,02,09,52,9.90
2006,05,02,09,53,9.90
2006,05,02,09,54,9.80
2006,05,02,09,55,9.80
2006,05,02,09,56,9.80
2006,05,02,09,57,9.80
2006,05,02,09,58,9.80
2006,05,02,09,59,9.80
2006,05,02,10,00,9.80
2006,05,02,10,01,9.80
2006,05,02,10,02,9.90
2006,05,02,10,03,9.90
2006,05,02,10,04,10.00
2006,05,02,10,05,10.10
2006,05,02,10,06,10.00
2006,05,02,10,07,9.90
2006,05,02,10,08,9.90
2006,05,02,10,09,9.90
2006,05,02,10,10,9.90
2006,05,02,10,11,10.00
2006,05,02,10,12,10.10
2006,05,02,10,13,10.10
2006,05,02,10,14,10.00
2006,05,02,10,15,9.90
2006,05,02,10,16,9.90
2006,05,02,10,17,9.90
2006,05,02,10,18,9.90
2006,05,02,10,19,9.90
2006,05,02,10,20,9.90
2006,05,02,10,21,10.00
2006,05,02,10,22,10.10
2006,05,02,10,23,10.10
2006,05,02,10,24,10.10
2006,05,02,10,25,10.10
2006,05,02,10,26,10.10
2006,05,02,10,27,10.10
2006,05,02,10,28,10.10
2006,05,02,10,29,10.10
2006,05,02,10,30,10.10
2006,05,02,10,31,10.10
2006,05,02,10,32,10.10
2006,05,02,10,33,10.10
2006,05,02,10,34,10.10
2006,05,02,10,35,10.10
2006,05,02,10,36,10.10
2006,05,02,10,37,10.20
2006,05,02,10,38,10.10
2006,05,02,10,39,10.10
2006,05,02,10,40,10.10
2006,05,02,10,41,10.20
2006,05,02,10,42,10.20
2006,05,02,10,43,10.30
2006,05,02,10,44,10.30
2006,05,02,10,45,10.40
2006,05,02,10,46,10.40
2006,05,02,10,47,10.30
2006,05,02,10,48,10.20
2006,05,02,10,49,10.20
2006,05,02,10,50,10.20
2006,05,02,10,51,10.10
2006,05,02,10,52,10.10
2006,05,02,10,53,10.20
2006,05,02,10,54,10.30
2006,05,02,10,55,10.30
2006,05,02,10,56,10.40
2006,05,02,10,57,10.50
2006,05,02,10,58,10.50
2006,05,02,10,59,10.40
2006,05,02,11,00,10.60
2006,05,02,11,01,10.60
2006,05,02,11,02,10.60
2006,05,02,11,03,10.50
2006,05,02,11,04,10.40
2006,05,02,11,05,10.40
2006,05,02,11,06,10.40
2006,05,02,11,07,10.40
2006,05,02,11,08,10.40
2006,05,02,11,09,10.40
2006,05,02,11,10,10.30
2006,05,02,11,11,10.30
2006,05,02,11,12,10.40
2006,05,02,11,13,10.40
2006,05,02,11,14,10.40
2006,05,02,11,15,10.40
2006,05,02,11,16,10.40
2006,05,02,11,17,10.50
2006,05,02,11,18,10.60
2006,05,02,11,19,10.70
2006,05,02,11,20,10.70
2006,05,02,11,21,10.80
2006,05,02,11,22,10.90
2006,05,02,11,23,11.00
2006,05,02,11,24,11.10
2006,05,02,11,25,10.90
2006,05,02,11,26,10.80
2006,05,02,11,27,10.80
2006,05,02,11,28,10.80
2006,05,02,11,29,10.80
2006,05,02,11,30,10.80
2006,05,02,11,31,10.80
2006,05,02,11,32,10.90
2006,05,02,11,33,11.00
2006,05,02,11,34,11.10
2006,05,02,11,35,11.10
2006,05,02,11,36,11.00
2006,05,02,11,37,10.90
2006,05,02,11,38,10.90
2006,05,02,11,39,10.90
2006,05,02,11,40,10.90
2006,05,02,11,41,10.90
2006,05,02,11,42,10.90
2006,05,02,11,43,10.90
2006,05,02,11,44,10.90
2006,05,02,11,45,10.90
2006,05,02,11,46,10.90
2006,05,02,11,47,10.90
2006,05,02,11,48,10.90
2006,05,02,11,49,10.90
2006,05,02,11,50,11.00
2006,05,02,11,51,11.10
2006,05,02,11,52,11.10
2006,05,02,11,53,11.10
2006,05,02,11,54,11.00
2006,05,02,11,55,11.10
2006,05,02,11,56,11.20
2006,05,02,11,57,11.20
2006,05,02,11,58,11.20
2006,05,02,11,59,11.40
2006,05,02,12,00,11.40
2006,05,02,12,01,11.50
2006,05,02,12,02,11.60
2006,05,02,12,03,11.70
2006,05,02,12,04,11.70
2006,05,02,12,05,11.70
2006,05,02,12,06,11.80
2006,05,02,12,07,11.80
2006,05,02,12,08,11.80
2006,05,02,12,09,11.80
2006,05,02,12,10,11.90
2006,05,02,12,11,11.90
2006,05,02,12,12,11.90
2006,05,02,12,13,12.00
2006,05,02,12,14,12.00
2006,05,02,12,15,12.10
2006,05,02,12,16,12.10
2006,05,02,12,17,12.10
2006,05,02,12,18,12.20
2006,05,02,12,19,12.10
2006,05,02,12,20,12.20
2006,05,02,12,21,12.10
2006,05,02,12,22,12.10
2006,05,02,12,23,12.00
2006,05,02,12,24,12.10
2006,05,02,12,25,12.20
2006,05,02,12,26,12.30
2006,05,02,12,27,12.30
2006,05,02,12,28,12.10
2006,05,02,12,29,12.00
2006,05,02,12,30,11.90
2006,05,02,12,31,11.90
2006,05,02,12,32,11.80
2006,05,02,12,33,11.90
2006,05,02,12,34,12.00
2006,05,02,12,35,12.10
2006,05,02,12,36,12.40
2006,05,02,12,37,12.40
2006,05,02,12,38,12.30
2006,05,02,12,39,12.20
2006,05,02,12,40,12.00
2006,05,02,12,41,12.00
2006,05,02,12,42,11.90
2006,05,02,12,43,12.00
2006,05,02,12,44,12.00
2006,05,02,12,45,12.00
2006,05,02,12,46,12.00
2006,05,02,12,47,12.00
2006,05,02,12,48,12.10
2006,05,02,12,49,12.10
2006,05,02,12,50,12.10
2006,05,02,12,51,12.20
2006,05,02,12,52,12.30
2006,05,02,12,53,12.30
2006,05,02,12,54,12.40
2006,05,02,12,55,12.30
2006,05,02,12,56,12.30
2006,05,02,12,57,12.30
2006,05,02,12,58,12.30
2006,05,02,12,59,12.30
2006,05,02,13,00,12.30
2006,05,02,13,01,12.40
2006,05,02,13,02,12.50
2006,05,02,13,03,12.50
2006,05,02,13,04,12.50
2006,05,02,13,05,12.50
2006,05,02,13,06,12.60
2006,05,02,13,07,12.60
2006,05,02,13,08,12.60
2006,05,02,13,09,12.80
2006,05,02,13,10,12.80
2006,05,02,13,11,12.80
2006,05,02,13,12,12.80
2006,05,02,13,13,12.90
2006,05,02,13,14,13.00
2006,05,02,13,15,13.00
2006,05,02,13,16,13.00
2006,05,02,13,17,13.10
2006,05,02,13,18,13.10
2006,05,02,13,19,13.20
2006,05,02,13,20,13.20
2006,05,02,13,21,13.20
2006,05,02,13,22,13.10
2006,05,02,13,23,13.10
2006,05,02,13,24,13.20
2006,05,02,13,25,13.20
2006,05,02,13,26,13.20
2006,05,02,13,27,13.20
2006,05,02,13,28,13.10
2006,05,02,13,29,13.10
2006,05,02,13,30,13.00
2006,05,02,13,31,13.10
2006,05,02,13,32,13.20
2006,05,02,13,33,13.20
2006,05,02,13,34,13.30
2006,05,02,13,35,13.30
2006,05,02,13,36,13.30
2006,05,02,13,37,13.30
2006,05,02,13,38,13.30
2006,05,02,13,39,13.40
2006,05,02,13,40,13.50
2006,05,02,13,41,13.50
2006,05,02,13,42,13.50
2006,05,02,13,43,13.40
2006,05,02,13,44,13.40
2006,05,02,13,45,13.30
2006,05,02,13,46,13.30
2006,05,02,13,47,13.40
2006,05,02,13,48,13.50
2006,05,02,13,49,13.60
2006,05,02,13,50,13.70
2006,05,02,13,51,13.70
2006,05,02,13,52,13.50
2006,05,02,13,53,13.30
2006,05,02,13,54,13.30
2006,05,02,13,55,13.30
2006,05,02,13,56,13.30
2006,05,02,13,57,13.30
2006,05,02,13,58,13.30
2006,05,02,13,59,13.30
2006,05,02,14,00,13.40
2006,05,02,14,01,13.50
2006,05,02,14,02,13.50
2006,05,02,14,03,13.60
2006,05,02,14,04,13.60
2006,05,02,14,05,13.70
2006,05,02,14,06,13.70
2006,05,02,14,07,13.70
2006,05,02,14,08,13.60
2006,05,02,14,09,13.50
2006,05,02,14,10,13.50
2006,05,02,14,11,13.40
2006,05,02,14,12,13.40
2006,05,02,14,13,13.30
2006,05,02,14,14,13.20
2006,05,02,14,15,13.10
2006,05,02,14,16,13.10
2006,05,02,14,17,13.10
2006,05,02,14,18,13.20
2006,05,02,14,19,13.30
2006,05,02,14,20,13.40
2006,05,02,14,21,13.60
2006,05,02,14,22,13.70
2006,05,02,14,23,13.70
2006,05,02,14,24,13.70
2006,05,02,14,25,13.70
2006,05,02,14,26,13.70
2006,05,02,14,27,13.60
2006,05,02,14,28,13.70
2006,05,02,14,29,13.70
2006,05,02,14,30,13.70
2006,05,02,14,31,13.70
2006,05,02,14,32,13.70
2006,05,02,14,33,13.80
2006,05,02,14,34,13.80
2006,05,02,14,35,13.80
2006,05,02,14,36,13.80
2006,05,02,14,37,13.70
2006,05,02,14,38,13.70
2006,05,02,14,39,13.70
2006,05,02,14,40,13.60
2006,05,02,14,41,13.70
2006,05,02,14,42,13.70
2006,05,02,14,43,13.60
2006,05,02,14,44,13.60
2006,05,02,14,45,13.60
2006,05,02,14,46,13.60
2006,05,02,14,47,13.60
2006,05,02,14,48,13.70
2006,05,02,14,49,13.60
2006,05,02,14,50,13.50
2006,05,02,14,51,13.50
2006,05,02,14,52,13.60
2006,05,02,14,53,13.60
2006,05,02,14,54,13.70
2006,05,02,14,55,13.70
2006,05,02,14,56,13.70
2006,05,02,14,57,13.70
2006,05,02,14,58,13.70
2006,05,02,14,59,13.80
2006,05,02,15,00,13.80
2006,05,02,15,01,13.80
2006,05,02,15,02,13.90
2006,05,02,15,03,13.90
2006,05,02,15,04,13.90
2006,05,02,15,05,13.90
2006,05,02,15,06,13.90
2006,05,02,15,07,13.90
2006,05,02,15,08,14.10
2006,05,02,15,09,14.20
2006,05,02,15,10,14.20
2006,05,02,15,11,14.20
2006,05,02,15,12,14.10
2006,05,02,15,13,14.10
2006,05,02,15,14,14.10
2006,05,02,15,15,14.00
2006,05,02,15,16,14.00
2006,05,02,15,17,14.00
2006,05,02,15,18,13.90
2006,05,02,15,19,13.90
2006,05,02,15,20,13.80
2006,05,02,15,21,13.70
2006,05,02,15,22,13.70
2006,05,02,15,23,13.70
2006,05,02,15,24,13.70
2006,05,02,15,25,13.80
2006,05,02,15,26,13.80
2006,05,02,15,27,13.90
2006,05,02,15,28,14.00
2006,05,02,15,29,14.10
2006,05,02,15,30,14.00
2006,05,02,15,31,14.00
2006,05,02,15,32,14.10
2006,05,02,15,33,14.10
2006,05,02,15,34,14.20
2006,05,02,15,35,14.10
2006,05,02,15,36,14.00
2006,05,02,15,37,14.00
2006,05,02,15,38,13.90
2006,05,02,15,39,13.90
2006,05,02,15,40,14.00
2006,05,02,15,41,13.90
2006,05,02,15,42,14.00
2006,05,02,15,43,14.10
2006,05,02,15,44,14.20
2006,05,02,15,45,14.30
2006,05,02,15,46,14.40
2006,05,02,15,47,14.40
2006,05,02,15,48,14.50
2006,05,02,15,49,14.50
2006,05,02,15,50,14.50
2006,05,02,15,51,14.50
2006,05,02,15,52,14.50
2006,05,02,15,53,14.50
2006,05,02,15,54,14.40
2006,05,02,15,55,14.20
2006,05,02,15,56,14.20
2006,05,02,15,57,14.20
2006,05,02,15,58,14.20
2006,05,02,15,59,14.40
2006,05,02,16,00,14.50
2006,05,02,16,01,14.60
2006,05,02,16,02,14.60
2006,05,02,16,03,14.60
2006,05,02,16,04,14.50
2006,05,02,16,05,14.40
2006,05,02,16,06,14.30
2006,05,02,16,07,14.30
2006,05,02,16,08,14.40
2006,05,02,16,09,14.30
2006,05,02,16,10,14.20
2006,05,02,16,11,14.20
2006,05,02,16,12,14.30
2006,05,02,16,13,14.40
2006,05,02,16,14,14.50
2006,05,02,16,15,14.60
2006,05,02,16,16,14.60
2006,05,02,16,17,14.70
2006,05,02,16,18,14.70
2006,05,02,16,19,14.50
2006,05,02,16,20,14.50
2006,05,02,16,21,14.40
2006,05,02,16,22,14.50
2006,05,02,16,23,14.60
2006,05,02,16,24,14.70
2006,05,02,16,25,14.70
2006,05,02,16,26,14.70
2006,05,02,16,27,14.70
2006,05,02,16,28,14.70
2006,05,02,16,29,14.70
2006,05,02,16,30,14.70
2006,05,02,16,31,14.70
2006,05,02,16,32,14.80
2006,05,02,16,33,14.80
2006,05,02,16,34,14.80
2006,05,02,16,35,14.80
2006,05,02,16,36,14.80
2006,05,02,16,37,14.90
2006,05,02,16,38,14.90
2006,05,02,16,39,14.90
2006,05,02,16,40,14.90
2006,05,02,16,41,14.90
2006,05,02,16,42,15.00
2006,05,02,16,43,15.10
2006,05,02,16,44,15.10
2006,05,02,16,45,15.20
2006,05,02,16,46,15.20
2006,05,02,16,47,15.20
2006,05,02,16,48,15.10
2006,05,02,16,49,15.00
2006,05,02,16,50,15.00
2006,05,02,16,51,15.00
2006,05,02,16,52,15.00
2006,05,02,16,53,15.00
2006,05,02,16,54,15.00
2006,05,02,16,55,15.00
2006,05,02,16,56,15.00
2006,05,02,16,57,15.00
2006,05,02,16,58,15.00
2006,05,02,16,59,15.00
2006,05,02,17,00,15.00
2006,05,02,17,01,15.00
2006,05,02,17,02,15.00
2006,05,02,17,03,15.00
2006,05,02,17,04,15.00
2006,05,02,17,05,15.10
2006,05,02,17,06,15.10
2006,05,02,17,07,15.30
2006,05,02,17,08,15.30
2006,05,02,17,09,15.30
2006,05,02,17,10,15.40
2006,05,02,17,11,15.40
2006,05,02,17,12,15.40
2006,05,02,17,13,15.40
2006,05,02,17,14,15.30
2006,05,02,17,15,15.30
2006,05,02,17,16,15.30
2006,05,02,17,17,15.30
2006,05,02,17,18,15.30
2006,05,02,17,19,15.30
2006,05,02,17,20,15.30
2006,05,02,17,21,15.20
2006,05,02,17,22,15.20
2006,05,02,17,23,15.30
2006,05,02,17,24,15.30
2006,05,02,17,25,15.30
2006,05,02,17,26,15.30
2006,05,02,17,27,15.30
2006,05,02,17,28,15.20
2006,05,02,17,29,15.30
2006,05,02,17,30,15.30
2006,05,02,17,31,15.30
2006,05,02,17,32,15.30
2006,05,02,17,33,15.40
2006,05,02,17,34,15.40
2006,05,02,17,35,15.50
2006,05,02,17,36,15.50
2006,05,02,17,37,15.50
2006,05,02,17,38,15.40
2006,05,02,17,39,15.40
2006,05,02,17,40,15.40
2006,05,02,17,41,15.40
2006,05,02,17,42,15.40
2006,05,02,17,43,15.40
2006,05,02,17,44,15.40